全球星 M006星 (GLOBALSTAR M006)

导读

GLOBALSTAR M006(全球星6号)是全球星移动通信系统的低轨通信卫星,由美国主导的国际 consortium 推出,于1998年4月24日在卡纳维拉尔角发射升空。卫星重450kg,设计寿命7.5年,运行于倾角52°、高度约1410km的近地轨道。它为全球除南北极外区域提供话音、数据、定位等移动通信服务,填补地面蜂窝网络盲区的通信需求,是全球星星座早期组网的重要组成部分。

基本信息
目录编号:
25307
目录名称:
GLOBALSTAR M006
国际标识:
1998-023B
轨道中心:
EARTH
卫星名称:
全球星 M006星
卫星全名:
全球星 M006星 (GLOBALSTAR M006)
卫星状态:
在轨 (已飞行10281 天)
发射日期:
1998-04-24 UTC
国别 :
(GLOB)
星等 :
--
轨道信息
数据来源 国际轨道数据 AOE轨道数据
星历时间 2026-06-17T15:06:19+0800
11小时前
查看轨道信息
2026-06-17T05:00:00+0800
21小时前
查看轨道信息
半长轴 8251.884km 8251.884km
偏心率 0.0004338 0.0004364
轨道倾角 51.996° 51.996°
近地点辐角 55.821° 51.633°
升交点赤经 26.414° 27.462°
平近点角 46.667° 94.537°
近地点 1870.167km 1870.145km
远地点 1877.327km 1877.349km
周期 124.334分钟 124.334分钟
每日圈数 11.581721 11.581721
详细信息
固有亮度:
5
最大亮度:
7.9
平衡模式:
三轴稳定
覆盖范围:
全球
运营商:
全球星公司
运营商所在国:
美国
使用方式:
暂无
卫星简介
全球星星座由48颗卫星加8颗备份星组成。这些卫星分布在8个倾角为52度的圆形轨道平面上,每个轨道平面6颗卫星,另有1 颗备用星。轨道高度约为1414km,传输时延和处理时延小于300ms,整个系统的覆盖区为南北纬70度以内的地区。该卫星仍在工作。
2D轨道图
3D轨道图
轨道高度分析图
轨道倾角分析图
轨道综合分析图
查看轨道综合分析图